{"data":{"norad_id":58262,"epoch":"2026-09-21T20:15:33.919776Z","epoch_age_seconds":123081,"freshness":"FRESH","line1":"1 58262U 23174G   26264.84414259  .00037165  00000+0  29979-3 0  9997","line2":"2 58262  97.3921   7.9136 0004480  94.8471 265.3303 15.70792553161320","mean_motion":15.70792553,"eccentricity":0.000448,"inclination_deg":97.3921,"raan_deg":7.9136,"arg_perigee_deg":94.8471,"mean_anomaly_deg":265.3303,"bstar":0.00029979,"rev_number":16132,"period_min":91.673467463912,"perigee_km":353.6135014685,"apogee_km":359.64785330744,"semimajor_km":6734.767677388,"source":"CELESTRAK","updated_at":"2026-09-22T09:00:26.575495Z"}}